Overview Statistics Trail Chart Weather Telemetry Raw packets
 

This is the latest recevied weather packets stored in our database for station/object KO4DYK. If no packets are shown the sender has not sent any weather packets the latest 10 day(s).

<< 26 27 28 29 30 31 32 >>
Time Temp. Humidity Pressure Rain* Wind** Luminosity Snow
1788481649 30.56° C 80% 1015.2 hPa 0 mm - 0 W/m² -
1788481346 31.67° C 78% 1015.2 hPa 0 mm - 0 W/m² -
1788481040 32.22° C 76% 1015 hPa 0 mm - 3 W/m² -
1788480739 32.22° C 74% 1015.1 hPa 0 mm - 5 W/m² -
1788480435 32.22° C 72% 1015 hPa 0 mm - 9 W/m² -
1788480130 32.78° C 72% 1015.3 hPa 0 mm - 13 W/m² -
1788479829 33.33° C 70% 1015 hPa 0 mm - 17 W/m² -
1788479526 33.89° C 70% 1014.8 hPa 0 mm - 23 W/m² -
1788479219 33.89° C 69% 1015 hPa 0 mm - 24 W/m² -
1788478916 34.44° C 67% 1015.1 hPa 0 mm - 26 W/m² -
1788478612 34.44° C 67% 1014.9 hPa 0 mm - 35 W/m² -
1788478308 34.44° C 67% 1015.2 hPa 0 mm - 44 W/m² -
1788478007 34.44° C 66% 1014.8 hPa 0 mm - 46 W/m² -
1788477703 33.89° C 60% 1015 hPa 0 mm - 43 W/m² -
1788477403 35° C 65% 1014.9 hPa 0 mm - 45 W/m² -
1788477103 35° C 59% 1015 hPa 0 mm - 47 W/m² -
1788476799 35° C 58% 1014.9 hPa 0 mm - 50 W/m² -
1788476498 35° C 58% 1014.7 hPa 0 mm - 50 W/m² -
1788476195 35.56° C 54% 1014.7 hPa 0 mm - 53 W/m² -
1788475891 35.56° C 54% 1014.6 hPa 0 mm - 57 W/m² -
1788475587 35.56° C 53% 1014.6 hPa 0 mm - 60 W/m² -
1788475284 36.11° C 52% 1014.5 hPa 0 mm - 63 W/m² -
1788474989 36.11° C 54% 1014.6 hPa 0 mm - 70 W/m² -
1788474681 36.67° C 52% 1014.8 hPa 0 mm - 91 W/m² -
1788474377 36.67° C 52% 1014.7 hPa 0 mm - 81 W/m² -

* Rain latest hour (hover to see other rain measurements)
** Current wind speed in m/s (hover to see current wind gust speed)